FW6938 Weather Reports


Display with metric or nautical units.
time (UTC)temp
F
wind
direction
speed
MPH
gust
MPH
rain 1hr
in
rain 24hr
in
rain mn
in
humidity
%
barometer
mb
20260504233030 67 113 4.0 13.0 0.00 0.00 0.00 35 1009.0
20260504231531 67 88 4.0 15.0 0.00 0.00 0.00 37 1008.8
20260504230030 65 86 7.0 15.0 0.00 0.00 0.00 35 1009.0
20260504224529 66 107 8.0 18.0 0.00 0.00 0.00 36 1009.1
20260504223031 68 32 3.0 13.0 0.00 0.00 0.00 35 1009.4
20260504221535 68 330 2.0 11.0 0.00 0.00 0.00 35 1009.4
20260504220032 66 335 1.0 16.0 0.00 0.00 0.00 36 1009.7
20260504214534 70 61 2.0 6.0 0.00 0.00 0.00 32 1009.7
20260504213029 72 242 1.0 12.0 0.00 0.00 0.00 27 1009.6
20260504211530 73 277 3.0 10.0 0.00 0.00 0.00 30 1009.4
20260504210032 74 173 3.0 12.0 0.00 0.00 0.00 28 1009.4
20260504204534 73 219 3.0 9.0 0.00 0.00 0.00 27 1009.4
20260504203030 73 252 1.0 7.0 0.00 0.00 0.00 27 1009.6
20260504201530 72 216 3.0 8.0 0.00 0.00 0.00 26 1009.8
20260504200032 72 272 2.0 11.0 0.00 0.00 0.00 30 1010.0
20260504194530 72 99 2.0 9.0 0.00 0.00 0.00 33 1010.1
20260504193031 71 240 3.0 10.0 0.00 0.00 0.00 31 1010.3
20260504191531 70 248 4.0 9.0 0.00 0.00 0.00 30 1010.3
20260504190030 70 225 2.0 8.0 0.00 0.00 0.00 30 1010.8
20260504184532 71 167 2.0 9.0 0.00 0.00 0.00 31 1011.0
20260504183029 70 164 2.0 7.0 0.00 0.00 0.00 32 1011.1
20260504181532 70 244 2.0 8.0 0.00 0.00 0.00 33 1011.3
20260504180029 70 165 2.0 8.0 0.00 0.00 0.00 33 1011.5
20260504174530 69 200 1.0 7.0 0.00 0.00 0.00 35 1011.6
20260504173034 69 291 0.0 7.0 0.00 0.00 0.00 35 1011.8
20260504171532 68 214 1.0 6.0 0.00 0.00 0.00 36 1011.8
20260504081531 56 0 0.0 6.0 0.00 0.00 0.00 37 1012.5
20260504044532 55 0 0.0 0.0 0.00 0.00 0.00 36 1011.9
20260504043029 55 0 0.0 0.0 0.00 0.00 0.00 38 1012.2
20260504041529 57 0 0.0 0.0 0.00 0.00 0.00 38 1012.0
20260504040034 58 0 0.0 0.0 0.00 0.00 0.00 35 1011.8
20260504034531 59 0 0.0 1.0 0.00 0.00 0.00 32 1011.8
20260504033032 60 0 0.0 0.0 0.00 0.00 0.00 34 1011.8
20260504031532 61 0 0.0 0.0 0.00 0.00 0.00 33 1011.7
20260504030030 62 0 0.0 0.0 0.00 0.00 0.00 29 1011.7
20260504024528 63 0 0.0 1.0 0.00 0.00 0.00 28 1011.8
20260504023031 65 0 0.0 0.0 0.00 0.00 0.00 27 1011.7
20260504021532 66 0 0.0 0.0 0.00 0.00 0.00 25 1011.7
20260504020030 68 0 0.0 2.0 0.00 0.00 0.00 23 1011.8
20260504014530 69 0 0.0 1.0 0.00 0.00 0.00 20 1011.9
20260504013035 70 0 0.0 2.0 0.00 0.00 0.00 18 1012.1
20260504011534 71 263 0.0 3.0 0.00 0.00 0.00 19 1012.2
20260504010029 72 0 0.0 1.0 0.00 0.00 0.00 17 1012.2
20260504004530 73 257 1.0 3.0 0.00 0.00 0.00 16 1012.4
20260504003039 73 257 0.0 3.0 0.00 0.00 0.00 15 1012.5
20260504001538 73 257 1.0 3.0 0.00 0.00 0.00 14 1012.5
20260504000051 73 0 0.0 2.0 0.00 0.00 0.00 15 1012.5
20260503234529 72 257 1.0 3.0 0.00 0.00 0.00 14 1012.5